Chadron, NE

12:29 AM MDT on May 25, 2017 (GMT -0600)
Chadron Municipal

Weather History for KCDR - March, 2014

Change the Weather History Date:

Wednesday, March 5, 2014

  Actual Average Record
Temperature  
Mean Temperature 32 °F 32 °F  
Max Temperature 50 °F 48 °F 74 °F (1950)
Min Temperature 13 °F 18 °F -26 °F (1989)
Degree Days  
Heating Degree Days 33 32  
Month to date heating degree days 243 165  
Since 1 July heating degree days 5717 5417  
Cooling Degree Days 0 0  
Month to date cooling degree days 0 0  
Year to date cooling degree days 0 0  
Moisture  
Dew Point 22 °F    
Average Humidity 79    
Maximum Humidity 100    
Minimum Humidity 57    
Precipitation  
Precipitation 0.00 in 0.04 in 1.38 in (1983)
Month to date precipitation 0.05 0.17  
Year to date precipitation 0.60 1.14  
Sea Level Pressure  
Sea Level Pressure 30.12 in    
Wind  
Wind Speed 4 mph (SW)    
Max Wind Speed 20 mph    
Max Gust Speed 24 mph    
Visibility 5 miles    
Events Fog    
T = Trace of Precipitation, MM = Missing Value Source: NWS Daily Summary

Daily Weather History Graph

Daily Weather History Graph

Search for Another Location

Airport or City:

Trip Planner

Search our weather history database for the weather conditions in past years. The results will help you decide how hot, cold, wet, or windy it might be!

Date:

Astronomy

Mar. 05, 2014 Rise Set
Actual Time 6:21 AM MST 5:46 PM MST
Civil Twilight 5:53 AM MST 6:15 PM MST
Nautical Twilight 5:20 AM MST 6:47 PM MST
Astronomical Twilight 4:47 AM MST 7:20 PM MST
Moon 8:41 AM MST (3/5) 11:05 PM MST (3/5)
Length of Visible Light 12h 21m
Length of Day
11h 25m
Waxing Crescent, 24% of the Moon is Illuminated
Mar 5
Waxing Crescent
Mar 8
First Quarter
Mar 16
Full
Mar 23
Last Quarter
Mar 30
New

Hourly Weather History & Observations

Time (MST) Temp. Windchill Dew Point Humidity Pressure Visibility Wind Dir Wind Speed Gust Speed Precip Events Conditions
12:48 AM 23.0 °F - 21.2 °F 93% 30.08 in 2.0 mi Calm Calm - N/A   Overcast
12:53 AM 23.0 °F - 21.0 °F 92% 30.23 in 1.0 mi Calm Calm - N/A   Overcast
1:00 AM 23.0 °F - 21.2 °F 93% 30.08 in 0.8 mi Calm Calm - N/A   Overcast
1:53 AM 23.0 °F - 23.0 °F 100% 30.23 in 0.5 mi Calm Calm - N/A Fog Light Freezing Fog
2:04 AM 23.0 °F - 21.2 °F 93% 30.08 in 0.2 mi Calm Calm - N/A Fog Light Freezing Fog
2:23 AM 23.0 °F - 21.2 °F 93% 30.08 in 0.2 mi Calm Calm - N/A Fog Light Freezing Fog
2:40 AM 23.0 °F - 21.2 °F 93% 30.08 in 0.2 mi Calm Calm - N/A Fog Light Freezing Fog
2:53 AM 21.9 °F - 21.0 °F 96% 30.22 in 0.2 mi Calm Calm - N/A Fog Light Freezing Fog
3:04 AM 21.2 °F - 19.4 °F 93% 30.07 in 0.2 mi Calm Calm - N/A Fog Light Freezing Fog
3:45 AM 17.6 °F - 15.8 °F 93% 30.07 in 0.2 mi Calm Calm - N/A Fog Light Freezing Fog
3:53 AM 17.1 °F - 16.0 °F 96% 30.23 in 0.2 mi Calm Calm - N/A Fog Light Freezing Fog
4:53 AM 17.1 °F 11.7 °F 15.1 °F 92% 30.24 in 0.5 mi WSW 3.5 mph - N/A Fog Light Freezing Fog
5:37 AM 15.8 °F 8.6 °F 12.2 °F 86% 30.08 in 1.8 mi SW 4.6 mph - N/A   Overcast
5:53 AM 14.0 °F 8.2 °F 10.9 °F 88% 30.26 in 0.5 mi WSW 3.5 mph - N/A Fog Light Freezing Fog
6:08 AM 15.8 °F 10.2 °F 12.2 °F 86% 30.08 in 0.5 mi WSW 3.5 mph - N/A Fog Light Freezing Fog
6:11 AM 15.8 °F 10.2 °F 12.2 °F 86% 30.08 in 0.2 mi WSW 3.5 mph - N/A Fog Light Freezing Fog
6:20 AM 14.0 °F 8.2 °F 12.2 °F 93% 30.08 in 0.5 mi SW 3.5 mph - N/A Fog Light Freezing Fog
6:27 AM 14.0 °F 8.2 °F 12.2 °F 93% 30.08 in 0.2 mi WSW 3.5 mph - N/A Fog Light Freezing Fog
6:41 AM 12.2 °F 6.1 °F 10.4 °F 92% 30.09 in 1.2 mi WSW 3.5 mph - N/A   Mostly Cloudy
6:44 AM 14.0 °F 8.2 °F 12.2 °F 93% 30.08 in 3.0 mi WSW 3.5 mph - N/A   Mostly Cloudy
6:53 AM 14.0 °F - 12.9 °F 95% 30.26 in 7.0 mi Calm Calm - N/A   Partly Cloudy
7:53 AM 17.1 °F - 14.0 °F 88% 30.27 in 9.0 mi Calm Calm - N/A   Clear
8:53 AM 21.9 °F - 19.9 °F 92% 30.25 in 9.0 mi Calm Calm - N/A   Clear
9:53 AM 25.0 °F - 21.0 °F 85% 30.23 in 10.0 mi Calm Calm - N/A   Clear
10:53 AM 30.0 °F - 25.0 °F 82% 30.21 in 10.0 mi Calm Calm - N/A   Clear
11:53 AM 37.9 °F - 28.9 °F 70% 30.17 in 10.0 mi Calm Calm - N/A   Clear
12:53 PM 42.1 °F - 30.9 °F 65% 30.13 in 10.0 mi Calm Calm - N/A   Clear
1:53 PM 44.1 °F - 32.0 °F 63% 30.11 in 10.0 mi Calm Calm - N/A   Clear
2:53 PM 45.0 °F - 34.0 °F 65% 30.10 in 10.0 mi Calm Calm - N/A   Clear
3:53 PM 46.9 °F - 34.0 °F 61% 30.09 in 10.0 mi Calm Calm - N/A   Clear
4:53 PM 46.0 °F 41.9 °F 33.1 °F 61% 30.06 in 10.0 mi South 8.1 mph - N/A   Clear
5:53 PM 37.9 °F 34.4 °F 30.0 °F 73% 30.10 in 10.0 mi SW 4.6 mph - N/A   Clear
6:53 PM 43.0 °F 36.4 °F 28.9 °F 58% 30.07 in 10.0 mi South 12.7 mph - N/A   Clear
7:53 PM 37.0 °F 32.4 °F 28.0 °F 70% 30.06 in 10.0 mi South 5.8 mph - N/A   Clear
8:53 PM 43.0 °F 36.4 °F 30.0 °F 60% 30.02 in 10.0 mi South 12.7 mph - N/A   Clear
9:53 PM 42.1 °F 34.2 °F 30.9 °F 65% 30.00 in 10.0 mi South 16.1 mph - N/A   Clear
10:53 PM 41.0 °F 33.5 °F 30.9 °F 67% 29.96 in 10.0 mi SW 13.8 mph - N/A   Clear
11:53 PM 42.1 °F 34.2 °F 30.0 °F 62% 29.93 in 10.0 mi SSW 16.1 mph - N/A   Clear